Location: Hains Lake
(37.8540°N, 99.8578°W)
Time: 01:17:16
(UTC+00:00)

Explorer 7 - All Passes

Search period start: 21 April 2021 00:00
Search period end: 01 May 2021 00:00
Orbit: 484 x 677 km, 50.3° (Epoch: 20 April)

Date Brightness Start Highest point End Pass type
(mag) Time Alt. Az. Time Alt. Az. Time Alt. Az.
21 Apr - 01:17:46 10° SSW 01:21:28 45° SE 01:25:24 10° ENE daylight
21 Apr - 02:58:28 10° W 03:02:05 31° NNW 03:05:54 10° NE visible
21 Apr - 04:41:00 10° NW 04:43:40 16° N 04:46:26 10° NE visible
21 Apr - 06:22:06 10° NNW 06:25:29 21° NNE 06:29:00 10° ENE visible
21 Apr - 08:02:09 10° NW 08:06:41 64° NE 08:11:26 10° ESE night (unlit)
21 Apr - 09:43:17 10° W 09:46:59 23° SW 09:50:47 10° S night (unlit)
22 Apr - 01:22:00 10° SW 01:25:51 79° SE 01:29:58 10° NE daylight
22 Apr - 03:03:28 10° WNW 03:06:45 24° NNW 03:10:13 10° NE visible
22 Apr - 04:45:53 10° NW 04:48:29 16° N 04:51:10 10° NE visible
22 Apr - 06:26:28 10° NW 06:30:12 26° NNE 06:34:05 10° ENE visible
22 Apr - 08:06:34 10° NW 08:11:08 84° SW 08:15:56 10° SE night (unlit)
22 Apr - 09:48:48 10° W 09:51:13 14° SW 09:53:40 10° SSW night (unlit)
22 Apr - 23:47:46 10° S 23:50:16 17° SE 23:52:50 10° E daylight
23 Apr - 01:26:29 10° WSW 01:30:19 62° NW 01:34:24 10° NE daylight
23 Apr - 03:08:32 10° WNW 03:11:29 19° NNW 03:14:34 10° NNE visible
23 Apr - 04:50:36 10° NNW 04:53:18 16° N 04:56:06 10° NE visible
23 Apr - 06:30:48 10° NW 06:34:50 33° NNE 06:39:05 10° E visible
23 Apr - 08:11:06 10° WNW 08:15:32 53° SW 08:20:12 10° SSE night (unlit)
23 Apr - 23:51:11 10° SSW 23:54:30 29° SE 23:57:57 10° ENE daylight
24 Apr - 01:31:11 10° W 01:34:51 40° NNW 01:38:45 10° NE daylight
24 Apr - 03:13:37 10° NW 03:16:15 16° N 03:19:00 10° NNE visible
24 Apr - 04:55:07 10° NNW 04:58:05 18° NNE 05:01:10 10° NE visible
24 Apr - 06:35:08 10° NW 06:39:25 47° NNE 06:43:56 10° ESE visible
24 Apr - 08:15:48 10° WNW 08:19:53 32° SW 08:24:08 10° SSE night (unlit)
24 Apr - 23:55:08 10° SW 23:58:49 51° SE 00:02:41 10° ENE daylight
25 Apr - 01:36:04 10° W 01:39:28 28° NNW 01:43:03 10° NE daylight
25 Apr - 03:18:38 10° NW 03:21:04 15° N 03:23:34 10° NNE visible
25 Apr - 04:59:31 10° NNW 05:02:49 21° NNE 05:06:16 10° ENE visible
25 Apr - 06:39:30 10° NW 06:43:55 70° NE 06:48:36 10° ESE visible
25 Apr - 08:20:49 10° W 08:24:10 20° SW 08:27:36 10° S night (unlit)
25 Apr - 22:22:42 10° SE 22:23:22 10° SE 22:24:02 10° ESE daylight
25 Apr - 23:59:24 10° SW 00:03:12 90° NW 00:07:12 10° NE daylight
26 Apr - 01:41:04 10° WNW 01:44:08 21° NNW 01:47:21 10° NNE daylight
26 Apr - 03:23:28 10° NNW 03:25:52 15° N 03:28:20 10° NE visible
26 Apr - 05:03:51 10° NW 05:07:30 26° NNE 05:11:20 10° E visible
26 Apr - 06:43:56 10° NW 06:48:21 75° SW 06:53:03 10° SE visible
26 Apr - 08:26:45 10° WSW 08:28:22 12° SW 08:30:01 10° SSW night (unlit)
26 Apr - 22:24:51 10° S 22:27:33 19° SE 22:30:18 10° E daylight
27 Apr - 00:03:56 10° WSW 00:07:40 54° NNW 00:11:35 10° NE daylight
27 Apr - 01:46:10 10° WNW 01:48:52 17° NNW 01:51:41 10° NNE visible
27 Apr - 03:28:06 10° NNW 03:30:39 16° N 03:33:19 10° NE visible
27 Apr - 05:08:09 10° NW 05:12:07 35° NNE 05:16:18 10° E visible
27 Apr - 06:48:29 10° WNW 06:52:44 46° SW 06:57:12 10° SSE night (unlit)
27 Apr - 22:28:25 10° SSW 22:31:48 33° SE 22:35:17 10° ENE daylight
28 Apr - 00:08:41 10° W 00:12:13 35° NNW 00:15:54 10° NE daylight
28 Apr - 01:51:15 10° NW 01:53:38 15° N 01:56:06 10° NNE visible
28 Apr - 03:32:33 10° NNW 03:35:25 18° NNE 03:38:23 10° ENE visible
28 Apr - 05:12:28 10° NW 05:16:39 50° NNE 05:21:06 10° ESE visible
28 Apr - 06:53:15 10° WNW 06:57:03 28° SW 07:01:01 10° SSE night (unlit)
28 Apr - 22:32:26 10° SW 22:36:07 59° SE 22:39:56 10° ENE daylight
29 Apr - 00:13:36 10° W 00:16:50 25° NNW 00:20:11 10° NE daylight
29 Apr - 01:56:14 10° NW 01:58:26 14° N 02:00:41 10° NNE visible
29 Apr - 03:36:54 10° NNW 03:40:08 21° NNE 03:43:30 10° ENE visible
29 Apr - 05:16:50 10° NW 05:21:08 78° NE 05:25:42 10° ESE visible
29 Apr - 06:58:24 10° W 07:01:18 17° SW 07:04:17 10° S night (unlit)
29 Apr - 20:59:08 10° SSE 21:00:36 12° SE 21:02:05 10° ESE daylight
29 Apr - 22:36:47 10° SW 22:40:31 79° NW 22:44:24 10° NE daylight
30 Apr - 00:18:39 10° WNW 00:21:30 19° NNW 00:24:27 10° NNE daylight
30 Apr - 02:01:00 10° NNW 02:03:13 14° N 02:05:30 10° NE visible
30 Apr - 03:41:12 10° NW 03:44:47 27° NNE 03:48:33 10° E visible
30 Apr - 05:21:17 10° WNW 05:25:33 66° SW 05:30:05 10° SE visible
30 Apr - 21:01:55 10° S 21:04:49 21° SE 21:07:44 10° E daylight
30 Apr - 22:41:22 10° WSW 22:45:00 47° NNW 22:48:46 10° NE daylight
